Hourly Data Report for January 04, 2018

All times are specified in Local Standard Time (LST). Add 1 hour to adjust for Daylight Saving Time where and when it is observed.

OTTAWA INTL A
ONTARIO

45°19'00.000" N
75°40'00.000" W
114.90 m
6106001
71628
YOW

Download Data

Hourly Data (January 2018)
Hourly Data Report for January 4, 2018
Temp Definition
°C
Dew Point Temp Definition
°C
Rel Hum Definition
%
Wind Dir Definition
10's deg

Wind Spd Definition
km/h
Visibility Definition
km
Stn Press Definition
kPa
Hmdx Definition


Wind Chill Definition


Weather Definition


TIME
00:00 Legend Double Dagger -8.1 -13.0 68 14 16 12.9 100.06   -15 Snow
01:00 Legend Double Dagger -8.0 -13.2 66 14 13 12.9 100.00   -14 Snow
02:00 Legend Double Dagger -8.0 -12.1 72 15 8 12.9 100.00   -12 Snow
03:00 Legend Double Dagger -8.1 -10.9 80 16 7 24.1 100.00   -12 Snow
04:00 Legend Double Dagger -8.0 -10.3 83 15 15 24.1 99.91   -14 Cloudy
05:00 Legend Double Dagger -7.9 -10.8 80 15 14 8.1 99.90   -14 Snow
06:00 Legend Double Dagger -8.2 -10.7 82 16 4 12.9 99.86   -10 Snow
07:00 Legend Double Dagger -8.6 -10.7 85 5 7 16.1 99.81   -12 Snow
08:00 Legend Double Dagger -9.4 -11.0 89 5 13 11.3 99.74   -15 LegendNANA
09:00 Legend Double Dagger -10.4 -12.2 86 2 17 12.9 99.63   -18 LegendNANA
10:00 Legend Double Dagger -10.5 -12.8 84 4 13 11.3 99.70   -17 Snow
11:00 Legend Double Dagger -9.8 -12.2 83 3 10 6.4 99.64   -15 Snow
12:00 Legend Double Dagger -9.3 -11.8 82 35 14 11.3 99.53   -16 Snow
13:00 Legend Double Dagger -8.5 -11.2 81 36 12 6.4 99.37   -14 Snow
14:00 Legend Double Dagger -7.9 -10.5 81 35 13 8.1 99.28   -14 Snow
15:00 Legend Double Dagger -10.9 -13.1 84 29 22 1.0 99.22   -19 Snow
16:00 Legend Double Dagger -11.6 -13.8 84 30 26 1.6 99.17   -21 Snow
17:00 Legend Double Dagger -11.9 -14.2 84 29 30 16.1 99.14   -22 Snow,Blowing Snow
18:00 Legend Double Dagger -13.3 -16.0 80 29 32 24.1 99.10   -24 Snow,Blowing Snow
19:00 Legend Double Dagger -14.9 -18.0 78 29 22 24.1 99.12   -24 Mostly Cloudy
20:00 Legend Double Dagger -15.1 -18.8 74 32 45 24.1 99.13   -28 Blowing Snow
21:00 Legend Double Dagger -15.8 -19.7 72 31 33 24.1 99.11   -28 Blowing Snow
22:00 Legend Double Dagger -17.0 -20.6 74 30 39 24.1 99.10   -30 Blowing Snow
23:00 Legend Double Dagger -18.1 -21.9 73 31 32 24.1 99.11   -30 Blowing Snow

Notes on Data Quality.

Legend

  • E = Estimated
  • M = Missing
  • NA = Not Available
  • ‡ = Partner data that is not subject to review by the National Climate Archives
Date modified: